Погода в Подкуровке

Россия / Ульяновская область     53°57′03″N   48°14′42″E
темп.,
°C
ветер,
м/с
пор.,
м/с
влажн.,
%
обл.,
%
осадки,
мм/ч
давл.,
гПа
погр.,
м
7 мая, пт
пт701:00+11ю41073100 0.0 1016178
04:00+10ю4971100 0.0 1016166
07:00+11ю51167100 0.0 1016296
10:00+15ю71052100 0.0 10151062
13:00+17ю81042100 0.0 10151858
16:00+18ююз794397 0.0 10142253
19:00+15ю51153100 0.0 1013496
22:00+11сз2491100 0.8 1016226
8 мая, сб
сб801:00+10зюз1294100 0.2 1017221
04:00+9ссв2395100 0.8 1017227
07:00+8св2395100 0.3 1018216
10:00+13юв247878 0.4 1017765
13:00+16ю456081 0.8 10161383
16:00+17ю4654100 0.9 1014951
19:00+16юв596034 0.0 1013397
22:00+14ююв5126177 0.0 1013308
9 мая, вс
вс901:00+11ююв487331 0.0 1013149
04:00+11ю387599 0.0 1013160
07:00+12ююв4107499 0.0 1013304
10:00+17ю6853100 0.0 1013666
13:00+20ююз574794 0.0 10131512
16:00+18з456099 0.1 1014581
19:00+13сз3693100 1.5 1016389
22:00+11с4797100 6.7 1018300
10 мая, пн
пн1001:00+9с5897100 4.0 1019390
04:00+8с5995100 4.7 1021447
07:00+7с5994100 0.1 1024442
10:00+7ссв61089100 0.3 1026498
13:00+9ссв6980100 0.0 1027560
16:00+9ссв5107997 0.0 1028540
19:00+10св4107771 0.0 1028563
22:00+6св27935 0.0 1029125
11 мая, вт
вт1101:00+7св411795 0.0 1030244
04:00+6св412793 0.0 1031240
07:00+8всв411785 0.0 1032323
10:00+12всв58608 0.0 1032725
13:00+16всв56474 0.0 10321085
16:00+17всв56444 0.0 10301108
19:00+15всв36646 0.0 1030216
22:00+10в237667 0.0 103142